[ ตารางข้อมูล ] [ Min-Max ] [ วันนี้4 ] [ วันนี้2 ] [ เทียบ3วัน A ] [ เทียบ4วัน B ]   

วันนี้2   [ ◀ ช่วงเก่ากว่า ] [ ช่วงที่ 167 ] [ ช่วงใหม่กว่า ▶ ] [ ล่าสุด ]    [ 3 ชั่วโมง ] [ 6 ชั่วโมง ] [ 12 ชั่วโมง ] [ 24 ชั่วโมง ]   วันนี้2

อุณภูมิตู้ Knockdown4529  ราย 3 ชั่วโมง  ที่วัดได้ ในช่วงวันเวลา 11/04/2026 (23:50) ถึง 12/04/2026 (02:50) 
ความชื้นในตู้ Knockdown4529  ราย 3 ชั่วโมง  ที่วัดได้ ในช่วงวันเวลา 11/04/2026 (23:50) ถึง 12/04/2026 (02:50) 

 
DS18B20SHTC3 
IDDate d/m/Y & Timedata1
สูง
data2
ต่ำ
data3
นอก
temp
pcb
hum
pcb
Time
 11034  12/04/2026 02:49:44  29.7  29.8  27.6  29.7  71.7  02:49 
 11033  12/04/2026 02:45:00  29.7  29.8  27.6  29.6  71.7  02:45 
 11032  12/04/2026 02:40:18  29.8  29.8  27.5  29.6  71.7  02:40 
 11031  12/04/2026 02:35:36  29.8  29.8  27.5  29.6  71.7  02:35 
 11030  12/04/2026 02:30:55  29.8  29.9  27.5  29.7  71.8  02:30 
 11029  12/04/2026 02:26:10  29.8  29.9  27.6  29.8  71.8  02:26 
 11028  12/04/2026 02:21:28  29.8  29.9  27.9  29.7  71.8  02:21 
 11027  12/04/2026 02:16:47  29.8  29.9  27.7  29.7  71.8  02:16 
 11026  12/04/2026 02:12:05  29.8  29.9  27.9  29.8  71.9  02:12 
 11025  12/04/2026 02:07:23  29.9  29.9  27.9  29.7  71.8  02:07 
 11024  12/04/2026 02:02:41  29.9  29.9  27.9  29.7  71.8  02:02 
 11023  12/04/2026 01:58:00  29.9  30.0  27.9  29.9  71.8  01:58 
 11022  12/04/2026 01:53:16  29.9  30.0  27.9  30.0  71.9  01:53 
 11021  12/04/2026 01:48:34  29.9  30.0  27.9  30.0  71.7  01:48 
 11020  12/04/2026 01:43:54  29.9  30.1  28.0  29.9  71.7  01:43 
 11019  12/04/2026 01:39:10  29.9  30.1  27.9  29.9  71.8  01:39 
 11018  12/04/2026 01:34:28  30.0  30.1  28.0  30.0  71.8  01:34 
 11017  12/04/2026 01:29:46  30.1  30.1  28.0  29.9  71.8  01:29 
 11016  12/04/2026 01:25:04  30.1  30.1  27.9  30.1  71.9  01:25 
 11015  12/04/2026 01:20:19  30.1  30.2  27.9  30.1  71.8  01:20 
 11014  12/04/2026 01:15:38  30.1  30.2  27.9  30.1  71.7  01:15 
 11013  12/04/2026 01:10:55  30.1  30.2  28.1  29.9  71.6  01:10 
 11012  12/04/2026 01:06:13  30.1  30.2  28.2  30.2  71.7  01:06 
 11011  12/04/2026 01:01:31  30.2  30.3  28.2  30.1  71.7  01:01 

Data every 5 minute.


ใช้เวลาประมวลผล 0.00189 วินาที